Regional Weather Roundup
Issued by NWS New Orleans/Baton Rouge, LA

Home | Current Version | Previous Version | Graphics & Text | Print | Product List | Glossary On
Versions: 1 2 3 4 5 6 7 8 9 10 11 12 13 14 15 16 17 18 19 20 21 22 23 24 25 26 27 28 29 30 31 32 33 34 35 36 37 38 39 40 41 42 43 44 45 46 47 48 49 50
217
ASUS44 KLIX 230310
RWRLIX
NEW ORLEANS REGIONAL WEATHER ROUNDUP
NATIONAL WEATHER SERVICE NEW ORLEANS LA
1000 PM CDT TUE APR 22 2014

NOTE: "FAIR" INDICATES FEW OR NO CLOUDS BELOW 12,000 FEET WITH NO
      SIGNIFICANT WEATHER AND/OR OBSTRUCTIONS TO VISIBILITY.
      SKY/WX - SKY CONDITION AND SIGNIFICANT WEATHER.
      TMP - AIR TEMPERATURE.     DP    - DEWPOINT TEMPERATURE.
      RH  - RELATIVE HUMIDITY.   PRES  - PRESSURE.
      HI  - HEAT INDEX.          WCI   - WIND CHILL INDEX.

*  THESE STATIONS ARE NOT NWS OR FAA STATIONS AND ARE NOT UNDER
   NWS QUALITY CONTROL.

LAZ038-040-048-061>063-065>067-069-230400-
SOUTHEAST LOUISIANA

CITY           SKY/WX    TMP DP  RH WIND       PRES   REMARKS
N.O. AUDUBON     N/A     67  64  91 MISG        N/A
N.O. INTL ARPT PTCLDY    70  64  81 N3        29.93R
N.O. LAKEFRONT CLEAR     70  66  87 N7        29.94R
N.O. DOWNTOWN*   N/A     73  61  64 N3        29.94R
SLIDELL        CLEAR     65  62  90 CALM      29.93R
BATON ROUGE    CLEAR     66  61  84 CALM      29.94R
BOOTHVILLE     CLEAR     70  68  93 W5        29.93R
BELLE CHASSE   PTCLDY    64  62  93 CALM      29.93R
BOGALUSA*        N/A     63  60  89 CALM      29.95R
GALLIANO*      CLEAR     71  67  88 SW3       29.94R
NEW ROADS*       N/A     66  61  83 CALM      29.95R
GONZALES*        N/A     65  64  93 CALM      29.94R
HAMMOND*       CLEAR     64  61  88 CALM      29.96R
HOUMA*           N/A     68  65  89 SW3       29.94R
PORT FOURCHON* PTCLDY    72  68  88 W7        29.95S

$$

MSZ070-080>082-230400-
SOUTHERN MISSISSIPPI

CITY           SKY/WX    TMP DP  RH WIND       PRES   REMARKS
MCCOMB         CLEAR     62  59  90 CALM      29.95R
GULFPORT       CLOUDY    72  65  78 NW6       29.91R
BILOXI         CLEAR     69  67  92 N2        29.92R
PASCAGOULA     CLOUDY    67  66  97 CALM      29.92R

$$

COASTAL OBSERVATIONS
LAKE AND NEARSHORE STATIONS

STATION/POSITION TIME  TEMP    WIND        PRES    WAVE
                       AIR SEA DIR/SP/G            HT/PER
                 (UTC) (F)     (DEG/KT/KT) (MB)    (FT/S)
PASCAGOULA       0300   70     250/  4/  5 1012.3
WAVELAND YACHT   0300   70 72  310/  4/  5 1012.5
GRAND ISLE       0300   72 72  280/ 10/ 11 1014.0
SOUTHWEST PASS   0300   68 60  280/ 12/ 13 1013.9
NEW CANAL        0300   72 69  350/  5/  7 1014.0
SHELL BEACH      0300   70 67  280/  4/  5 1013.2

OFFSHORE STATIONS

STATION/POSITION TIME  TEMP    WIND        PRES    WAVE
                       AIR SEA DIR/SP/G            HT/PER
                 (UTC) (F)     (DEG/KT/KT) (MB)    (FT/S)
64 S DAUPHIN ISL 0250   70 69  270/  8/ 10 1013.5

$$




USA.gov is the U.S. government's official web portal to all federal, state and local government web resources and services.